Roatan, Honduras

6:39 AM CST on April 19, 2018 (GMT -0600)
Roatan International

Weather History for MHRO - November, 2013

Change the Weather History Date:

Tuesday, November 5, 2013

  Actual Average Record
Temperature  
Mean Temperature 78 °F -  
Max Temperature 85 °F 82 °F 91 °F (1998)
Min Temperature 70 °F 74 °F 66 °F (2016)
Cooling Degree Days 12    
Growing Degree Days 28 (Base 50)    
Moisture  
Dew Point 72 °F    
Average Humidity 77    
Maximum Humidity 89    
Minimum Humidity 64    
Precipitation  
Precipitation 1.02 in - - ()
Sea Level Pressure  
Sea Level Pressure 29.89 in    
Wind  
Wind Speed 5 mph ()    
Max Wind Speed 20 mph    
Max Gust Speed -    
Visibility 5.6 miles    
Events Rain    
Averages and records for this station are not official NWS values.
T = Trace of Precipitation, MM = Missing Value Source: Averaged Metar Reports

Daily Weather History Graph

Daily Weather History Graph

Search for Another Location

Airport or City:

Astronomy

Nov. 05, 2013 Rise Set
Actual Time 5:45 AM CST 5:14 PM CST
Civil Twilight 5:22 AM CST 5:36 PM CST
Nautical Twilight 4:56 AM CST 6:02 PM CST
Astronomical Twilight 4:31 AM CST 6:27 PM CST
Moon 7:47 AM CST (11/5) 7:27 PM CST (11/5)
Length of Visible Light 12h 13m
Length of Day
11h 29m
Waxing Crescent, 7% of the Moon is Illuminated
Nov 5
Waxing Crescent
Nov 9
First Quarter
Nov 17
Full
Nov 25
Last Quarter
Dec 2
New

Hourly Weather History & Observations

Time (CST) Temp. Heat Index Dew Point Humidity Pressure Visibility Wind Dir Wind Speed Gust Speed Precip Events Conditions
6:00 AM 74 °F - 71 °F 88% 29.90 in 6 mi WNW 2.3 mph - -   Partly Cloudy
6:00 AM 75.2 °F - 71.6 °F 89% 29.89 in 6.2 mi WNW 2.3 mph - N/A   Scattered Clouds
7:00 AM 78.8 °F - 73.4 °F 83% 29.92 in 5.0 mi WNW 3.5 mph - N/A   Mostly Cloudy
8:00 AM 80.6 °F 84.6 °F 71.6 °F 74% 29.92 in 1.9 mi West 5.8 mph - N/A   Mostly Cloudy
9:00 AM 79 °F - 72 °F 73% 29.95 in 0 mi NE 19.6 mph - - Rain Light Rain Showers
9:00 AM 78.8 °F - 71.6 °F 78% 29.95 in 0.3 mi NE 19.6 mph - N/A Rain Rain Showers
10:00 AM 75.2 °F - 71.6 °F 89% 29.95 in 2.5 mi NW 5.8 mph - N/A   Light Drizzle
11:00 AM 78.8 °F - 75.2 °F 89% 29.92 in 6.2 mi NNW 6.9 mph - N/A   Mostly Cloudy
12:00 PM 83 °F - 73 °F 64% 29.91 in 6 mi NNW 4.6 mph - -   Partly Cloudy
12:00 PM 82.4 °F 88.2 °F 73.4 °F 74% 29.89 in 6.2 mi NNW 4.6 mph - N/A   Mostly Cloudy
1:00 PM 82.4 °F 87.2 °F 71.6 °F 70% 29.86 in 6.2 mi WNW 4.6 mph - N/A   Scattered Clouds
2:00 PM 82.4 °F 87.2 °F 71.6 °F 70% 29.86 in 6.2 mi West 8.1 mph - N/A   Scattered Clouds
3:00 PM 82 °F - 72 °F 66% 29.85 in 11 mi West 8.1 mph - -   Haze
3:00 PM 82.4 °F 87.2 °F 71.6 °F 70% 29.83 in 6.2 mi West 8.1 mph - N/A   Mostly Cloudy
4:00 PM 82.4 °F 87.2 °F 71.6 °F 70% 10.10 in 6.2 mi West 5.8 mph - N/A   Scattered Clouds
5:00 PM 82.4 °F 87.2 °F 71.6 °F 70% 29.83 in 6.2 mi WNW 3.5 mph - N/A   Scattered Clouds
6:00 PM 79 °F - 72 °F 73% 29.85 in 11 mi West 3.5 mph - -   Haze
6:00 PM 78.8 °F - 71.6 °F 78% 29.86 in 6.2 mi West 3.5 mph - N/A   Scattered Clouds
7:00 PM 78.8 °F - 73.4 °F 83% 29.86 in 6.2 mi West 3.5 mph - N/A   Scattered Clouds
8:00 PM 78.8 °F - 73.4 °F 83% 29.89 in 6.2 mi NNE 5.8 mph - N/A   Partly Cloudy